This is the latest recevied weather packets stored in our database for station/object W2GRK-15. If no packets are shown the sender has not sent any weather packets the latest 10 day(s).
| Time | Temp. | Humidity | Pressure | Rain* | Wind** | Luminosity | Snow |
|---|---|---|---|---|---|---|---|
| 1777851676 | 14.44° C | 33% | 1011.7 hPa | 0 mm | - | 7 W/m² | - |
| 1777851016 | 14.44° C | 33% | 1011.5 hPa | 0 mm | - | 12 W/m² | - |
| 1777850903 | 14.44° C | 32% | 1011.3 hPa | 0 mm | - | 13 W/m² | - |
| 1777850859 | 14.44° C | 32% | 1011.4 hPa | 0 mm | - | 14 W/m² | - |
| 1777850662 | 14.44° C | 33% | 1011.4 hPa | 0 mm | - | 15 W/m² | - |
| 1777850355 | 14.44° C | 32% | 1011.7 hPa | 0 mm | - | 17 W/m² | - |
| 1777850327 | 14.44° C | 32% | 1011.6 hPa | 0 mm | - | 18 W/m² | - |
| 1777850150 | 14.44° C | 32% | 1011.5 hPa | 0 mm | - | 18 W/m² | - |
| 1777849711 | 15° C | 32% | 1011.5 hPa | 0 mm | - | 21 W/m² | - |
| 1777849518 | 15° C | 32% | 1011.4 hPa | 0 mm | - | 22 W/m² | - |
| 1777849405 | 15° C | 31% | 1011.3 hPa | 0 mm | - | 23 W/m² | - |
| 1777849051 | 15° C | 32% | 1011.2 hPa | 0 mm | - | 25 W/m² | - |
| 1777848987 | 15° C | 32% | 1011.4 hPa | 0 mm | - | 25 W/m² | - |
| 1777848282 | 15.56° C | 30% | 1011.4 hPa | 0 mm | - | 29 W/m² | - |
| 1777848084 | 15.56° C | 30% | 1011.2 hPa | 0 mm | - | 30 W/m² | - |
| 1777847927 | 15.56° C | 28% | 1011.2 hPa | 0 mm | - | 31 W/m² | - |
| 1777847601 | 15.56° C | 30% | 1011.3 hPa | 0 mm | - | 33 W/m² | - |
| 1777847537 | 15.56° C | 30% | 1011.2 hPa | 0 mm | - | 34 W/m² | - |
| 1777847360 | 15.56° C | 29% | 1011.3 hPa | 0 mm | - | 41 W/m² | - |
| 1777846784 | 15.56° C | 29% | 1011.1 hPa | 0 mm | - | 35 W/m² | - |
| 1777846699 | 15.56° C | 28% | 1011.1 hPa | 0 mm | - | 37 W/m² | - |
| 1777846587 | 15.56° C | 28% | 1011.2 hPa | 0 mm | - | 39 W/m² | - |
| 1777846281 | 15.56° C | 28% | 1010.9 hPa | 0 mm | - | 36 W/m² | - |
| 1777846217 | 15.56° C | 27% | 1011.1 hPa | 0 mm | - | 37 W/m² | - |
| 1777845862 | 15.56° C | 28% | 1011.2 hPa | 0 mm | - | 39 W/m² | - |
* Rain latest hour (hover to see other rain measurements)
** Current wind speed in m/s (hover to see current wind gust speed)